Weather History for VIAR - February, 2014

Change the Weather History Date:

Saturday, February 22, 2014

  Actual Average Record
Temperature  
Mean Temperature 53 °F -  
Max Temperature 65 °F 70 °F - (-1)
Min Temperature 41 °F 48 °F - (-1)
Degree Days  
Heating Degree Days 12    
Growing Degree Days 3 (Base 50)    
Moisture  
Dew Point 54 °F    
Average Humidity 86    
Maximum Humidity 100    
Minimum Humidity 65    
Precipitation  
Precipitation 0.00 in - - ()
Sea Level Pressure  
Sea Level Pressure 30.06 in    
Wind  
Wind Speed 6 mph ()    
Max Wind Speed 24 mph    
Max Gust Speed -    
Visibility 1.9 miles    
Events Rain , Thunderstorm    
Averages and records for this station are not official NWS values.
T = Trace of Precipitation, MM = Missing Value Source: Averaged Metar Reports

Daily Weather History Graph

Daily Weather History Graph

Search for Another Location

Airport or City:

Trip Planner

Search our weather history database for the weather conditions in past years. The results will help you decide how hot, cold, wet, or windy it might be!

Date:

Astronomy

Feb. 22, 2014 Rise Set
Actual Time 7:06 AM IST 6:23 PM IST
Civil Twilight 6:41 AM IST 6:47 PM IST
Nautical Twilight 6:13 AM IST 7:16 PM IST
Astronomical Twilight 5:44 AM IST 7:44 PM IST
Moon No Moon Rise 11:20 AM IST (2/22)
Length of Visible Light 12h 06m
Length of Day
11h 16m
Waning Gibbous, 55% of the Moon is Illuminated
Feb 22
Waning Gibbous
Feb 22
Last Quarter
Mar 1
New
Mar 8
First Quarter
Mar 16
Full

Hourly Weather History & Observations

Time (IST) Temp. Dew Point Humidity Pressure Visibility Wind Dir Wind Speed Gust Speed Precip Events Conditions
12:00 AM 55.4 °F 51.8 °F 88% 29.95 in 1.9 mi NW 24.2 mph - N/A Rain , Thunderstorm Light Thunderstorms and Rain
12:30 AM 57.2 °F 50.0 °F 77% 29.95 in 1.9 mi NW 17.3 mph - N/A Rain , Thunderstorm Light Thunderstorms and Rain
1:00 AM 57.2 °F 51.8 °F 82% 29.98 in 1.9 mi Variable 6.9 mph - N/A Rain , Thunderstorm Light Thunderstorms and Rain
1:30 AM 55.4 °F 51.8 °F 88% 29.95 in 1.9 mi NE 9.2 mph - N/A Rain , Thunderstorm Light Thunderstorms and Rain
3:30 AM 53.6 °F 51.8 °F 94% 30.01 in 1.9 mi Calm Calm - N/A   Light Drizzle
5:00 AM 53.6 °F 51.8 °F 94% 30.01 in - North - - N/A   Light Drizzle
5:30 AM 55 °F 52 °F 86% 30.00 in 1 mi Calm Calm - - Rain Light Drizzle
5:30 AM 53.6 °F 51.8 °F 94% 30.01 in - North - - N/A   Light Drizzle
7:00 AM 53.6 °F 51.8 °F 94% 30.04 in 1.9 mi Calm Calm - N/A   Mostly Cloudy
7:30 AM 51.8 °F 50.0 °F 94% 30.04 in 1.9 mi Calm Calm - N/A   Mostly Cloudy
8:00 AM 51.8 °F 51.8 °F 100% 30.06 in 1.9 mi Calm Calm - N/A   Mostly Cloudy
8:30 AM 54 °F 52 °F 91% 30.09 in 1 mi Calm Calm - -   Mist
9:00 AM 55.4 °F 51.8 °F 88% 30.06 in 1.9 mi Calm Calm - N/A   Scattered Clouds
9:30 AM 59.0 °F 53.6 °F 82% 30.09 in 2.5 mi Calm Calm - N/A   Scattered Clouds
10:00 AM 59.0 °F 55.4 °F 88% 30.09 in 2.5 mi Variable 1.2 mph - N/A   Scattered Clouds
10:30 AM 60.8 °F 53.6 °F 77% 30.12 in 2.8 mi SE 10.4 mph - N/A   Scattered Clouds
11:00 AM 62.6 °F 53.6 °F 72% 30.12 in 2.8 mi SE 8.1 mph - N/A   Scattered Clouds
11:30 AM 63 °F 54 °F 65% 30.12 in 1 mi SE 6.9 mph - -   Haze
11:30 AM 62.6 °F 53.6 °F 72% 30.12 in 2.8 mi SE 6.9 mph - N/A   Haze
12:00 PM 64.4 °F 55.4 °F 73% 30.12 in 2.8 mi SE 5.8 mph - N/A   Haze
12:30 PM 64.4 °F 55.4 °F 73% 30.09 in 2.8 mi SSE 3.5 mph - N/A   Haze
1:00 PM 64.4 °F 53.6 °F 68% 30.09 in 2.8 mi Variable 2.3 mph - N/A   Haze
1:30 PM 64.4 °F 53.6 °F 68% 30.09 in 2.8 mi Calm Calm - N/A   Haze
2:00 PM 60.8 °F 57.2 °F 88% 30.06 in 2.5 mi NE 8.1 mph - N/A   Light Drizzle
2:30 PM 61 °F 57 °F 84% 30.07 in 1 mi NNE 6.9 mph - - Rain Rain
3:00 PM 60.8 °F 57.2 °F 88% 30.06 in 1.9 mi NNE 6.9 mph - N/A   Light Drizzle
4:00 PM 62.6 °F 59.0 °F 88% 30.06 in 1.6 mi NNE 5.8 mph - N/A   Overcast
5:00 PM 62.6 °F 57.2 °F 82% 30.06 in 2.2 mi NNE 5.8 mph - N/A   Scattered Clouds
5:30 PM 62 °F 57 °F 80% 30.05 in 1 mi 6.9 mph - -   Mist
5:30 PM 62.6 °F 57.2 °F 82% 30.06 in 2.2 mi Variable 6.9 mph - N/A   Scattered Clouds
6:00 PM 60.8 °F 57.2 °F 88% 30.06 in 2.2 mi NNE 5.8 mph - N/A   Scattered Clouds
6:30 PM 60.8 °F 57.2 °F 88% 30.06 in 2.2 mi NNE 5.8 mph - N/A   Partly Cloudy
7:00 PM 59.0 °F 57.2 °F 94% 30.06 in 1.9 mi NNE 5.8 mph - N/A   Mist
7:30 PM 57.2 °F 55.4 °F 94% 30.06 in 1.7 mi Calm Calm - N/A   Partly Cloudy
8:00 PM 55.4 °F 55.4 °F 100% 30.09 in 1.7 mi Calm Calm - N/A   Partly Cloudy
8:30 PM 56 °F 55 °F 95% 30.09 in 1 mi Calm Calm - -   Mist
9:00 PM 55.4 °F 55.4 °F 100% 30.09 in 0.9 mi Calm Calm - N/A   Partly Cloudy
11:00 PM 48.2 °F 48.2 °F 100% 30.12 in - Calm Calm - N/A   Unknown
11:30 PM 49 °F 49 °F 99% 30.13 in 0 mi Calm Calm - -  
11:30 PM 48.2 °F 48.2 °F 100% 30.12 in - Calm Calm - N/A   Unknown